Greenville, MS

9:58 PM CDT on August 22, 2017 (GMT -0500)
Mid Delta Regional

Weather History for KGLH - September, 2012

Change the Weather History Date:

Sunday, September 30, 2012

  Actual Average Record
Temperature  
Mean Temperature 63 °F 70 °F  
Max Temperature 67 °F 82 °F 96 °F (1986)
Min Temperature 59 °F 57 °F 41 °F (1967)
Degree Days  
Heating Degree Days 2 1  
Month to date heating degree days 3 5  
Since 1 July heating degree days 3 6  
Cooling Degree Days 0 6  
Month to date cooling degree days 334 301  
Year to date cooling degree days 2373 2080  
Growing Degree Days 14 (Base 50)    
Moisture  
Dew Point 61 °F    
Average Humidity 94    
Maximum Humidity 100    
Minimum Humidity 87    
Precipitation  
Precipitation 3.48 in 0.12 in 3.48 in (2012)
Month to date precipitation 6.06 3.08  
Year to date precipitation 33.13 37.64  
Sea Level Pressure  
Sea Level Pressure 29.75 in    
Wind  
Wind Speed 18 mph (NE)    
Max Wind Speed 33 mph    
Max Gust Speed 49 mph    
Visibility 4 miles    
Events Rain    
T = Trace of Precipitation, MM = Missing Value Source: NWS Daily Summary

Daily Weather History Graph

Daily Weather History Graph

Search for Another Location

Airport or City:

Trip Planner

Search our weather history database for the weather conditions in past years. The results will help you decide how hot, cold, wet, or windy it might be!

Date:

Astronomy

Sep. 30, 2012 Rise Set
Actual Time 6:57 AM CDT 6:49 PM CDT
Civil Twilight 6:33 AM CDT 7:13 PM CDT
Nautical Twilight 6:04 AM CDT 7:42 PM CDT
Astronomical Twilight 5:35 AM CDT 8:11 PM CDT
Moon 6:58 PM CDT (9/30) 7:24 AM CDT (9/30)
Length of Visible Light 12h 40m
Length of Day
11h 51m
Full, 100% of the Moon is Illuminated
Sep 30
Full
Oct 8
Last Quarter
Oct 15
New
Oct 21
First Quarter
Oct 29
Full

Hourly Weather History & Observations

Time (CDT) Temp. Dew Point Humidity Pressure Visibility Wind Dir Wind Speed Gust Speed Precip Events Conditions
12:05 AM 69.8 °F 66.2 °F 88% 29.90 in 4.0 mi ENE 5.8 mph - 0.06 in Rain Heavy Rain
12:20 AM 68.0 °F 66.2 °F 94% 29.90 in 2.5 mi ESE 4.6 mph - 0.16 in Rain Heavy Rain
12:34 AM 68.0 °F 66.2 °F 94% 29.89 in 1.8 mi Calm Calm - 0.29 in Rain Heavy Rain
12:42 AM 68.0 °F 66.2 °F 94% 29.89 in 2.5 mi ESE 3.5 mph - 0.32 in Rain Heavy Rain
12:51 AM 68.0 °F 66.2 °F 94% 29.89 in 3.0 mi East 5.8 mph - 0.35 in Rain Heavy Rain
12:53 AM 66.9 °F 66.0 °F 97% 29.91 in 3.0 mi East 5.8 mph - 0.36 in Rain Heavy Rain
1:50 AM 66.2 °F 64.4 °F 94% 29.88 in 6.0 mi NNE 4.6 mph - 0.15 in Rain Rain
1:53 AM 66.0 °F 64.9 °F 96% 29.90 in 6.0 mi NNE 4.6 mph - 0.15 in Rain Rain
2:17 AM 66.2 °F 64.4 °F 94% 29.88 in 3.0 mi Calm Calm - 0.06 in Rain Heavy Rain
2:53 AM 66.0 °F 64.9 °F 96% 29.89 in 4.0 mi NE 5.8 mph - 0.14 in Rain Rain
3:39 AM 66.2 °F 64.4 °F 94% 29.85 in 4.0 mi NNE 6.9 mph - 0.10 in Rain Rain
3:53 AM 66.0 °F 64.9 °F 96% 29.86 in 5.0 mi NNE 6.9 mph - 0.12 in Rain Rain
4:13 AM 66.2 °F 64.4 °F 94% 29.84 in 5.0 mi NNE 6.9 mph - 0.02 in Rain Light Rain
4:53 AM 66.0 °F 64.9 °F 96% 29.85 in 5.0 mi NE 4.6 mph - 0.07 in Rain Rain
5:00 AM 66.2 °F 64.4 °F 94% 29.83 in 5.0 mi ENE 5.8 mph - 0.02 in Rain Rain
5:15 AM 66.2 °F 64.4 °F 94% 29.83 in 5.0 mi NE 5.8 mph - 0.04 in Rain Rain
5:38 AM 66.2 °F 64.4 °F 94% 29.82 in 5.0 mi ENE 6.9 mph - 0.08 in Rain Rain
5:53 AM 66.0 °F 64.9 °F 96% 29.84 in 4.0 mi NE 8.1 mph - 0.11 in Rain Rain
6:30 AM 66.2 °F 64.4 °F 94% 29.82 in 4.0 mi NE 9.2 mph - 0.08 in Rain Rain
6:53 AM 66.0 °F 64.9 °F 96% 29.84 in 4.0 mi NE 6.9 mph - 0.11 in Rain Rain
7:30 AM 66.2 °F 64.4 °F 94% 29.81 in 2.0 mi NE 10.4 mph - 0.09 in Rain Rain
7:49 AM 66.2 °F 64.4 °F 94% 29.80 in 3.0 mi NE 10.4 mph - 0.12 in Rain Rain
7:53 AM 66.0 °F 64.9 °F 96% 29.82 in 3.0 mi NE 11.5 mph - 0.13 in Rain Rain
8:07 AM 66.2 °F 64.4 °F 94% 29.80 in 4.0 mi NE 11.5 mph - 0.02 in Rain Rain
8:25 AM 66.2 °F 64.4 °F 94% 29.80 in 3.0 mi NE 11.5 mph - 0.06 in Rain Rain
8:53 AM 66.0 °F 64.9 °F 96% 29.83 in 3.0 mi NNE 11.5 mph - 0.12 in Rain Heavy Rain
9:00 AM 64.4 °F 64.4 °F 100% 29.82 in 2.0 mi NNE 9.2 mph - 0.02 in Rain Heavy Rain
9:08 AM 64.4 °F 64.4 °F 100% 29.82 in 1.5 mi North 9.2 mph - 0.08 in Rain Heavy Rain
9:24 AM 64.4 °F 62.6 °F 94% 29.81 in 1.5 mi NNE 11.5 mph - 0.19 in Rain Heavy Rain
9:50 AM 64.4 °F 64.4 °F 100% 29.82 in 1.8 mi NE 10.4 mph - 0.36 in Rain Heavy Rain
9:53 AM 64.0 °F 64.0 °F 100% 29.83 in 1.8 mi NE 12.7 mph - 0.38 in Rain Heavy Rain
10:40 AM 64.4 °F 64.4 °F 100% 29.79 in 2.5 mi NNE 16.1 mph - 0.22 in Rain Rain
10:49 AM 64.4 °F 64.4 °F 100% 29.79 in 2.5 mi NE 13.8 mph - 0.24 in Rain Rain
10:53 AM 64.9 °F 64.0 °F 97% 29.81 in 2.5 mi NE 12.7 mph - 0.25 in Rain Heavy Rain
11:09 AM 64.4 °F 64.4 °F 100% 29.78 in 1.2 mi NE 17.3 mph - 0.10 in Rain Heavy Rain
11:19 AM 64.4 °F 64.4 °F 100% 29.78 in 2.0 mi NE 18.4 mph - 0.13 in Rain Rain
11:53 AM 64.9 °F 64.0 °F 97% 29.79 in 1.8 mi ENE 15.0 mph 21.9 mph 0.27 in Rain Heavy Rain
12:22 PM 64.4 °F 64.4 °F 100% 29.74 in 2.0 mi NE 16.1 mph - 0.17 in Rain Heavy Rain
12:53 PM 64.9 °F 64.0 °F 97% 29.75 in 4.0 mi NE 18.4 mph 26.5 mph 0.26 in Rain Rain
1:00 PM 64.4 °F 64.4 °F 100% 29.73 in 4.0 mi NE 16.1 mph 26.5 mph 0.02 in Rain Rain
1:28 PM 64.4 °F 62.6 °F 94% 29.70 in 5.0 mi ENE 24.2 mph 33.4 mph 0.07 in Rain Rain
1:53 PM 63.0 °F 60.1 °F 90% 29.72 in 4.0 mi ENE 25.3 mph 34.5 mph 0.10 in Rain Rain
2:10 PM 60.8 °F 57.2 °F 88% 29.70 in 1.8 mi ENE 23.0 mph 34.5 mph 0.09 in Rain Heavy Rain
2:43 PM 60.8 °F 57.2 °F 88% 29.67 in 3.0 mi NE 26.5 mph 33.4 mph 0.33 in Rain Rain
2:49 PM 60.8 °F 57.2 °F 88% 29.67 in 1.8 mi NE 25.3 mph 35.7 mph 0.39 in Rain Heavy Rain
2:53 PM 60.1 °F 57.0 °F 90% 29.70 in 1.5 mi NE 23.0 mph 35.7 mph 0.40 in Rain Heavy Rain
3:02 PM 60.8 °F 57.2 °F 88% 29.69 in 3.0 mi NE 20.7 mph 31.1 mph 0.02 in Rain Rain
3:04 PM 60.8 °F 57.2 °F 88% 29.69 in 2.5 mi NNE 16.1 mph 31.1 mph 0.05 in Rain Rain
3:13 PM 59.0 °F 57.2 °F 94% 29.70 in 0.8 mi NNE 16.1 mph - 0.20 in Rain Heavy Rain
3:21 PM 60.8 °F 57.2 °F 88% 29.70 in 1.0 mi NE 17.3 mph 25.3 mph 0.28 in Rain Heavy Rain
3:33 PM 60.8 °F 57.2 °F 88% 29.68 in 2.5 mi NE 21.9 mph 27.6 mph 0.31 in Rain Heavy Rain
3:42 PM 60.8 °F 57.2 °F 88% 29.67 in 3.0 mi NE 19.6 mph 28.8 mph 0.32 in Rain Rain
3:53 PM 60.1 °F 57.0 °F 90% 29.69 in 2.0 mi NE 28.8 mph 49.5 mph 0.36 in Rain Heavy Rain
4:08 PM 60.8 °F 57.2 °F 88% 29.68 in 1.5 mi NE 24.2 mph 33.4 mph 0.08 in Rain Heavy Rain
4:17 PM 60.8 °F 57.2 °F 88% 29.68 in 3.0 mi NE 21.9 mph 34.5 mph 0.10 in Rain Light Rain
4:38 PM 59.0 °F 57.2 °F 94% 29.67 in 4.0 mi NE 20.7 mph 32.2 mph 0.10 in Rain Light Rain
4:53 PM 60.1 °F 57.9 °F 93% 29.68 in 5.0 mi NE 20.7 mph 26.5 mph 0.11 in Rain Light Rain
5:08 PM 60.8 °F 57.2 °F 88% 29.66 in 2.5 mi NE 18.4 mph - 0.05 in Rain Heavy Rain
5:17 PM 60.8 °F 59.0 °F 94% 29.66 in 3.0 mi NE 18.4 mph - 0.08 in Rain Rain
5:34 PM 60.8 °F 57.2 °F 88% 29.66 in 4.0 mi NE 28.8 mph 34.5 mph 0.11 in Rain Heavy Rain
5:40 PM 60.8 °F 57.2 °F 88% 29.66 in 1.8 mi NE 29.9 mph 46.0 mph 0.15 in Rain Heavy Rain
5:53 PM 59.0 °F 57.0 °F 93% 29.68 in 1.2 mi NE 26.5 mph 36.8 mph 0.24 in Rain Heavy Rain
6:02 PM 60.8 °F 57.2 °F 88% 29.65 in 3.0 mi NE 23.0 mph 40.3 mph 0.01 in Rain Light Rain
6:07 PM 60.8 °F 57.2 °F 88% 29.66 in 4.0 mi NE 20.7 mph 35.7 mph 0.02 in Rain Rain
6:09 PM 60.8 °F 57.2 °F 88% 29.66 in 4.0 mi NE 18.4 mph 31.1 mph 0.02 in Rain Light Rain
6:23 PM 60.8 °F 57.2 °F 88% 29.67 in 6.0 mi NE 31.1 mph 41.4 mph 0.02 in Rain Light Rain
6:34 PM 59.0 °F 57.2 °F 94% 29.67 in 6.0 mi NE 25.3 mph 39.1 mph 0.02 in Rain Light Rain
6:53 PM 59.0 °F 57.2 °F 94% 29.66 in 3.0 mi NE 27.6 mph 38.0 mph N/A Rain Heavy Rain
7:22 PM 60.8 °F 57.2 °F 88% 29.66 in 7.0 mi NNE 23.0 mph 28.8 mph 0.03 in Rain Light Rain
7:34 PM 60.8 °F 57.2 °F 88% 29.66 in 9.0 mi NE 24.2 mph 32.2 mph 0.03 in Rain Light Rain
7:53 PM 60.1 °F 57.0 °F 90% 29.68 in 9.0 mi NNE 23.0 mph 31.1 mph 0.04 in Rain Light Rain
8:23 PM 60.8 °F 57.2 °F 88% 29.65 in 10.0 mi NNE 21.9 mph 33.4 mph 0.00 in   Overcast
8:53 PM 60.1 °F 57.9 °F 93% 29.65 in 10.0 mi NNE 23.0 mph 33.4 mph 0.00 in   Overcast
9:43 PM 60.8 °F 57.2 °F 88% 29.64 in 7.0 mi NNE 20.7 mph 28.8 mph 0.00 in Rain Light Rain
9:53 PM 60.1 °F 57.0 °F 90% 29.67 in 8.0 mi NNE 21.9 mph 29.9 mph 0.00 in Rain Light Rain
10:53 PM 59.0 °F 55.9 °F 90% 29.65 in 5.0 mi NNE 23.0 mph 32.2 mph 0.03 in Rain Rain
11:06 PM 59.0 °F 57.2 °F 94% 29.62 in 5.0 mi NNE 20.7 mph 28.8 mph 0.02 in Rain Rain
11:30 PM 59.0 °F 57.2 °F 94% 29.61 in 8.0 mi NNE 23.0 mph 29.9 mph 0.04 in Rain Light Rain
11:53 PM 60.1 °F 57.0 °F 90% 29.64 in 10.0 mi North 19.6 mph 27.6 mph 0.04 in   Overcast